{"data":{"norad_id":56896,"intl_designator":"2023-083W","name":"STARLINK-6202","alt_names":[],"object_type":"PAYLOAD","status":"ACTIVE","operator":null,"country":"US","launch_date":"2023-06-12","launch_site_code":"AFETR","launch_vehicle":null,"mission":null,"orbit_class":"UNKNOWN","rcs_meters":null,"size_class":null,"mass_kg":null,"dimensions":null,"purposes":["comms"],"wikipedia_slug":null,"has_3d_model":false,"image_url":null,"decayed_at":null,"tle_current":{"epoch":"2026-05-25T00:58:09.350400Z","epoch_age_seconds":71274,"freshness":"FRESH","line1":"1 56896U 23083W   26145.04038600  .00001274  00000+0  55824-4 0  9990","line2":"2 56896  43.0058  17.7243 0001688 273.6964  86.3694 15.27584520163375","mean_motion":15.2758452,"eccentricity":0.0001688,"inclination_deg":43.0058,"raan_deg":17.7243,"arg_perigee_deg":273.6964,"mean_anomaly_deg":86.3694,"bstar":5.5824e-5,"rev_number":16337,"period_min":94.266469785908,"perigee_km":481.87739563857,"apogee_km":484.19372749536,"semimajor_km":6861.172561567,"source":"CELESTRAK","updated_at":"2026-05-25T13:38:18.171229Z"}}}